This demonstration page uses our WeatherBlox Daily Observations layout. Learn more.

Left ArrowRight Arrow

40.92945, -100.16068

Hourly Observations for November 22, 2015

Temp ( °F °C ) Dew Point ( °F °C ) Humidity (%) Winds ( mph kmh ) Pressure ( in mb ) Visibility ( mi km ) Precip ( " mm )
12:15 am 00:15 Clear 23 -5 20 -6.6 89 89 W 6 9 30.24 1024 10 16 N/A
12:35 am 00:35 Clear 22 -5.7 19 -7 91 91 NW 5 7 30.24 1024 10 16 N/A
12:55 am 00:55 Clear 22 -5.3 20 -6.5 91 91 WNW 7 11 30.24 1024 10 16 N/A
1:15 am 01:15 Clear 23 -5.2 20 -6.5 91 91 WNW 7 11 30.24 1024 10 16 N/A
1:35 am 01:35 Clear 21 -6.1 19 -7.3 91 91 NW 5 7 30.21 1023 10 16 N/A
1:55 am 01:55 Clear 21 -6.1 19 -7.3 91 91 NW 6 9 30.21 1023 10 16 N/A
2:15 am 02:15 Clear 21 -6 19 -7.1 92 92 NW 6 9 30.21 1023 10 16 N/A
2:35 am 02:35 Clear 21 -6.1 19 -7.2 92 92 NW 5 7 30.21 1023 10 16 N/A
2:55 am 02:55 Clear 21 -6.1 19 -7.2 92 92 NW 7 11 30.21 1023 10 16 N/A
3:15 am 03:15 Clear 20 -6.4 19 -7.5 92 92 NW 6 9 30.21 1023 10 16 N/A
3:35 am 03:35 Clear 21 -6.2 19 -7.5 91 91 WNW 6 9 30.21 1023 10 16 N/A
3:55 am 03:55 Clear 22 -5.8 19 -7 91 91 WNW 7 11 30.21 1023 10 16 N/A
4:15 am 04:15 Clear 21 -6.3 18 -7.6 91 91 W 5 7 30.21 1023 10 16 N/A
4:35 am 04:35 Clear 22 -5.7 19 -7 91 91 WNW 3 6 30.21 1023 10 16 N/A
4:55 am 04:55 Clear 21 -6.1 19 -7.5 90 90 WNW 6 9 30.21 1023 10 16 N/A
5:15 am 05:15 Clear 21 -6.2 19 -7.5 91 91 WNW 8 13 30.21 1023 10 16 N/A
5:35 am 05:35 Clear 22 -5.4 20 -6.8 90 90 W 9 15 30.21 1023 10 16 N/A
5:55 am 05:55 Clear 23 -5 20 -6.6 89 89 W 8 13 30.21 1023 10 16 N/A
6:15 am 06:15 Clear 22 -5.5 19 -7.1 89 89 W 7 11 30.21 1023 10 16 N/A
6:35 am 06:35 Clear 22 -5.5 19 -7.1 89 89 WNW 5 7 30.21 1023 10 16 N/A
6:55 am 06:55 Clear 21 -6 19 -7.5 89 89 WNW 6 9 30.21 1023 10 16 N/A
7:15 am 07:15 Clear 22 -5.7 19 -7.3 89 89 NW 3 6 30.21 1023 10 16 N/A
7:35 am 07:35 Sunny 22 -5.6 19 -7.2 89 89 NW 6 9 30.21 1023 10 16 N/A
7:55 am 07:55 Sunny 23 -5.2 20 -6.8 89 89 WNW 7 11 30.21 1023 10 16 N/A
8:15 am 08:15 Sunny 23 -5.1 20 -6.8 88 88 WNW 6 9 30.21 1023 10 16 N/A
8:35 am 08:35 Sunny 25 -4 22 -5.8 87 87 WNW 6 9 30.18 1022 10 16 N/A
8:55 am 08:55 Sunny 26 -3.2 22 -5.3 86 86 WNW 6 9 30.18 1022 10 16 N/A
9:15 am 09:15 Sunny 28 -2.4 24 -4.6 85 85 WNW 6 9 30.18 1022 10 16 N/A
9:35 am 09:35 Sunny 30 -1.1 25 -4 81 81 W 5 7 30.15 1021 10 16 N/A
9:55 am 09:55 Sunny 32 0.1 26 -3.6 76 76 W 5 7 30.15 1021 10 16 N/A
10:15 am 10:15 Sunny 35 1.7 24 -4.2 65 65 W 3 6 30.12 1020 10 16 N/A
10:35 am 10:35 Sunny 37 3 24 -4.3 59 59 WSW 3 6 30.12 1020 10 16 N/A
10:55 am 10:55 Sunny 41 4.9 25 -4 53 53 W 9 15 30.09 1019 10 16 N/A
11:15 am 11:15 Sunny 45 7 22 -5.3 42 42 W 12 19 30.09 1019 10 16 N/A
11:35 am 11:35 Sunny 46 7.6 21 -5.9 38 38 W 14 22 30.06 1018 10 16 N/A
11:55 am 11:55 Sunny 47 8.5 22 -5.4 37 37 W 13 20 30.03 1017 10 16 N/A
12:15 pm 12:15 Sunny 49 9.6 22 -5.6 34 34 W 15 24 30.00 1016 10 16 N/A
12:35 pm 12:35 Sunny 50 10.2 22 -5.6 33 33 W 14 22 30.00 1016 10 16 N/A
12:55 pm 12:55 Sunny 51 10.8 22 -5.4 32 32 W 14 22 30.00 1016 10 16 N/A
1:15 pm 13:15 Sunny 53 11.5 22 -5.3 31 31 W 14 22 30.00 1016 10 16 N/A
1:35 pm 13:35 Sunny 54 12 23 -5.1 30 30 W 10 17 29.97 1015 10 16 N/A
1:55 pm 13:55 Sunny 55 12.8 23 -5.1 29 29 W 15 24 29.94 1014 10 16 N/A
2:15 pm 14:15 Sunny 56 13.5 24 -4.7 28 28 W 17 28 29.94 1014 10 16 N/A
2:35 pm 14:35 Sunny 56 13.6 23 -4.9 28 28 W 16 26 29.94 1014 10 16 N/A
2:55 pm 14:55 Sunny 57 14 24 -4.2 28 28 W 17 28 29.94 1014 10 16 N/A
3:15 pm 15:15 Sunny 58 14.3 25 -4 28 28 W 16 26 29.94 1014 10 16 N/A
3:35 pm 15:35 Sunny 58 14.3 25 -3.9 28 28 W 15 24 29.94 1014 10 16 N/A
3:55 pm 15:55 Sunny 57 14.1 25 -3.8 29 29 WNW 14 22 29.94 1014 10 16 N/A
4:15 pm 16:15 Sunny 56 13.5 26 -3.6 31 31 W 10 17 29.94 1014 10 16 N/A
4:35 pm 16:35 Sunny 55 12.5 26 -3.3 33 33 W 9 15 29.94 1014 10 16 N/A
4:55 pm 16:55 Sunny 53 11.5 26 -3.6 35 35 W 10 17 30.00 1016 10 16 N/A
5:15 pm 17:15 Sunny 49 9.3 26 -3.5 41 41 W 9 15 30.03 1017 10 16 N/A
5:35 pm 17:35 Clear 46 7.6 26 -3.6 45 45 W 8 13 30.03 1017 10 16 N/A
5:55 pm 17:55 Clear 44 6.5 25 -3.8 48 48 W 7 11 30.03 1017 10 16 N/A
6:15 pm 18:15 Clear 41 4.8 25 -4 53 53 WSW 7 11 30.06 1018 10 16 N/A
6:35 pm 18:35 Clear 38 3.1 26 -3.3 63 63 N 9 15 30.12 1020 10 16 N/A
6:55 pm 18:55 Clear 38 3.6 26 -3.3 61 61 NW 6 9 30.09 1019 10 16 N/A
7:15 pm 19:15 Clear 37 2.5 26 -3.4 65 65 NW 6 9 30.12 1020 10 16 N/A
7:35 pm 19:35 Clear 37 2.9 26 -3.6 63 63 WNW 7 11 30.12 1020 10 16 N/A
7:55 pm 19:55 Clear 35 1.5 25 -4.1 67 67 WSW 9 15 30.12 1020 10 16 N/A
8:15 pm 20:15 Clear 35 1.7 25 -3.7 68 68 WSW 7 11 30.12 1020 10 16 N/A
8:35 pm 20:35 Clear 34 1.2 25 -4 69 69 W 8 13 30.12 1020 10 16 N/A
8:55 pm 20:55 Clear 33 0.5 25 -4 72 72 W 7 11 30.12 1020 10 16 N/A
9:15 pm 21:15 Clear 32 undefined 25 -3.9 75 75 WNW 8 13 30.15 1021 10 16 N/A
9:35 pm 21:35 Clear 30 -0.9 24 -4.2 79 79 NW 5 7 30.15 1021 10 16 N/A
9:55 pm 21:55 Clear 29 -1.5 25 -3.7 85 85 NW 3 6 30.15 1021 10 16 N/A
10:15 pm 22:15 Clear 29 -1.8 25 -4.1 84 84 N N/A 30.18 1022 10 16 N/A
10:35 pm 22:35 Clear 29 -1.5 25 -3.8 85 85 NNW 5 7 30.15 1021 10 16 N/A
10:55 pm 22:55 Clear 29 -1.7 24 -4.2 83 83 N N/A 30.18 1022 10 16 N/A
11:15 pm 23:15 Clear 28 -2.2 24 -4.5 84 84 NW 3 6 30.21 1023 10 16 N/A
11:35 pm 23:35 Clear 27 -2.6 24 -4.5 87 87 WNW 3 6 30.21 1023 10 16 N/A
11:55 pm 23:55 Clear 27 -2.6 23 -4.9 84 84 W 5 7 30.21 1023 10 16 N/A

Powered by AerisWeather